STARLINK-33924 (64149 NORAD) Tracking and Keplerian Element Data

This shows tracking and keplerian element data for the satellite.

Feedback or suggestion? Click here.




ElementValue
Catalog64149
NameSTARLINK-33924
Epoch Orbit3133
Epoch Day354.13486234
Epoch Year2025
RAAN43.0343
Inclination97.6057
Eccentricity0.0001395
Argument of Perigee86.9391
Mean Anonmoly273.1996
Mean Motion15.05652864
Decay Rate4.498E-05
L11 64149U 25112D 25354.13486234 .00004498 00000+0 31575-3 0 9993
L22 64149 97.6057 43.0343 0001395 86.9391 273.1996 15.05652864 31330



Live tracking and technical data element details for STARLINK-33924 (NORAD 64149). STARLINK-33924 can be tracked NOW for your location showing map with azimuth and elevation plus other details from your city location.







IsCatalogInMostPopularTable: catalog: 64149, numindb: 3
Update: records affected: 1



GetName: 64149 STARLINK-33924

Hit Count: updated at: Wed, 11 Feb 2026 15:30:10 GMT